�������l�o���
Date,Time,MP-1(��Sv/h),MP-2(��Sv/h),MP-3(��Sv/h),MP-4(��Sv/h),MP-5(��Sv/h),MP-6(��Sv/h),MP-7(��Sv/h),����,����(m/s),���J
2022/11/15,00:00,0.158,0.145,0.231,0.222,0.218,0.125,0.080,�k��,6.3,��
2022/11/15,00:10,0.158,0.144,0.231,0.221,0.219,0.126,0.080,�k��,6.0,��
2022/11/15,00:20,0.158,0.145,0.230,0.223,0.217,0.127,0.081,�k�k��,6.1,��
2022/11/15,00:30,0.159,0.143,0.232,0.221,0.218,0.126,0.080,�k��,6.2,��
2022/11/15,00:40,0.159,0.144,0.231,0.220,0.219,0.125,0.081,�k��,6.4,��
2022/11/15,00:50,0.159,0.144,0.231,0.221,0.218,0.126,0.081,�k��,6.7,��
2022/11/15,01:00,0.159,0.144,0.231,0.222,0.219,0.126,0.080,�k��,6.9,��
2022/11/15,01:10,0.159,0.145,0.231,0.221,0.217,0.127,0.080,�k��,6.7,��
2022/11/15,01:20,0.159,0.146,0.230,0.222,0.217,0.125,0.080,�k��,6.8,��
2022/11/15,01:30,0.159,0.145,0.232,0.221,0.218,0.126,0.081,�k�k��,7.2,��
2022/11/15,01:40,0.158,0.144,0.231,0.223,0.217,0.126,0.080,�k��,6.9,��
2022/11/15,01:50,0.159,0.144,0.231,0.222,0.219,0.126,0.080,�k��,6.9,��
2022/11/15,02:00,0.158,0.144,0.231,0.222,0.219,0.127,0.080,�k�k��,6.2,��
2022/11/15,02:10,0.159,0.144,0.232,0.221,0.219,0.127,0.080,�k��,6.0,��
2022/11/15,02:20,0.159,0.145,0.231,0.222,0.219,0.126,0.080,�k��,6.3,��
2022/11/15,02:30,0.158,0.144,0.231,0.222,0.218,0.126,0.080,�k��,6.1,��
2022/11/15,02:40,0.160,0.145,0.231,0.221,0.218,0.127,0.081,�k��,6.2,�L
2022/11/15,02:50,0.160,0.144,0.230,0.222,0.219,0.128,0.081,�k��,6.2,��
2022/11/15,03:00,0.158,0.145,0.231,0.222,0.218,0.127,0.081,�k��,6.1,��
2022/11/15,03:10,0.159,0.145,0.232,0.222,0.219,0.127,0.080,�k��,6.4,��
2022/11/15,03:20,0.158,0.144,0.230,0.222,0.218,0.127,0.081,�k��,6.2,��
2022/11/15,03:30,0.158,0.144,0.232,0.220,0.219,0.126,0.080,�k��,6.6,��
2022/11/15,03:40,0.160,0.144,0.231,0.223,0.217,0.127,0.080,�k��,6.3,��
2022/11/15,03:50,0.159,0.144,0.231,0.222,0.218,0.126,0.080,�k�k��,6.2,��
2022/11/15,04:00,0.159,0.145,0.231,0.222,0.219,0.126,0.080,�k��,6.4,��
2022/11/15,04:10,0.159,0.145,0.232,0.221,0.218,0.127,0.080,�k�k��,6.2,��
2022/11/15,04:20,0.157,0.145,0.231,0.221,0.219,0.126,0.080,�k��,7.2,��
2022/11/15,04:30,0.159,0.144,0.231,0.221,0.218,0.125,0.080,�k��,6.9,��
2022/11/15,04:40,0.159,0.145,0.232,0.222,0.218,0.126,0.080,�k��,5.9,��
2022/11/15,04:50,0.158,0.143,0.232,0.221,0.219,0.127,0.081,�k��,6.1,��
2022/11/15,05:00,0.159,0.144,0.230,0.222,0.218,0.125,0.080,�k��,5.8,��
2022/11/15,05:10,0.159,0.143,0.232,0.222,0.219,0.126,0.080,�k��,5.9,��
2022/11/15,05:20,0.159,0.145,0.230,0.221,0.218,0.126,0.081,�k��,5.8,��
2022/11/15,05:30,0.159,0.143,0.231,0.222,0.218,0.127,0.080,�k�k��,6.0,��
2022/11/15,05:40,0.158,0.144,0.232,0.220,0.219,0.127,0.080,�k�k��,6.8,�L
2022/11/15,05:50,0.159,0.144,0.233,0.221,0.218,0.127,0.080,�k��,6.3,��
2022/11/15,06:00,0.159,0.145,0.231,0.222,0.217,0.126,0.080,�k��,6.7,��
2022/11/15,06:10,0.158,0.144,0.231,0.221,0.219,0.127,0.080,�k��,7.0,��
2022/11/15,06:20,0.159,0.145,0.232,0.222,0.217,0.127,0.080,�k��,6.5,�L
2022/11/15,06:30,0.159,0.144,0.231,0.222,0.220,0.126,0.080,�k��,6.4,�L
2022/11/15,06:40,0.159,0.145,0.230,0.221,0.218,0.126,0.080,�k��,6.4,�L
2022/11/15,06:50,0.159,0.145,0.232,0.222,0.218,0.126,0.080,�k��,6.9,��
2022/11/15,07:00,0.159,0.145,0.232,0.222,0.220,0.126,0.080,�k��,4.6,��
2022/11/15,07:10,0.158,0.144,0.231,0.222,0.218,0.127,0.081,�k��,3.9,�L
2022/11/15,07:20,0.159,0.145,0.233,0.221,0.219,0.126,0.081,�k��,4.6,��
2022/11/15,07:30,0.159,0.145,0.233,0.221,0.217,0.127,0.080,�k�k��,4.6,�L
2022/11/15,07:40,0.159,0.144,0.231,0.221,0.218,0.126,0.081,�k��,4.8,�L
2022/11/15,07:50,0.161,0.146,0.234,0.223,0.221,0.129,0.082,�k�k��,6.2,�L
2022/11/15,08:00,0.164,0.150,0.235,0.225,0.221,0.133,0.085,�k��,4.5,�L
2022/11/15,08:10,0.165,0.151,0.236,0.225,0.223,0.135,0.088,�k��,4.6,�L
2022/11/15,08:20,0.167,0.154,0.238,0.227,0.224,0.136,0.089,�k��,4.5,�L
2022/11/15,08:30,0.167,0.154,0.237,0.226,0.224,0.136,0.088,�k��,4.9,�L
2022/11/15,08:40,0.169,0.153,0.239,0.227,0.225,0.137,0.089,�k��,5.3,�L
2022/11/15,08:50,0.167,0.153,0.237,0.226,0.223,0.136,0.089,�k��,6.8,�L
2022/11/15,09:00,0.166,0.152,0.236,0.226,0.224,0.135,0.088,�k��,7.2,�L
2022/11/15,09:10,0.166,0.151,0.236,0.224,0.223,0.134,0.088,�k��,5.9,�L
2022/11/15,09:20,0.166,0.151,0.236,0.227,0.222,0.134,0.089,�k��,5.1,�L
2022/11/15,09:30,0.166,0.152,0.235,0.226,0.224,0.134,0.088,�k�k��,4.8,�L
2022/11/15,09:40,0.164,0.150,0.235,0.225,0.222,0.134,0.088,�k�k��,4.5,�L
2022/11/15,09:50,0.165,0.150,0.234,0.225,0.221,0.133,0.087,�k��,4.7,�L
2022/11/15,10:00,0.164,0.150,0.233,0.224,0.220,0.133,0.086,�k��,5.2,�L
2022/11/15,10:10,0.163,0.148,0.233,0.222,0.220,0.130,0.084,�k��,4.0,�L
2022/11/15,10:20,0.163,0.147,0.232,0.222,0.220,0.131,0.084,�k��,4.0,�L
2022/11/15,10:30,0.162,0.147,0.231,0.222,0.220,0.130,0.085,�k�k��,4.3,�L
2022/11/15,10:40,0.160,0.146,0.230,0.222,0.218,0.130,0.084,�k�k��,3.8,�L
2022/11/15,10:50,0.161,0.145,0.231,0.221,0.218,0.129,0.084,�k�k��,4.0,�L
2022/11/15,11:00,0.159,0.146,0.229,0.220,0.219,0.129,0.084,�k��,3.1,�L
2022/11/15,11:10,0.159,0.144,0.228,0.219,0.218,0.129,0.084,�k�k��,3.1,�L
2022/11/15,11:20,0.160,0.144,0.229,0.220,0.219,0.129,0.084,�k�k��,3.7,�L
2022/11/15,11:30,0.158,0.145,0.229,0.220,0.217,0.129,0.083,�k�k��,3.6,�L
2022/11/15,11:40,0.159,0.144,0.229,0.219,0.218,0.129,0.083,�k�k��,4.0,�L
2022/11/15,11:50,0.160,0.144,0.229,0.220,0.219,0.129,0.084,�k�k��,3.2,�L
2022/11/15,12:00,0.159,0.144,0.227,0.220,0.217,0.128,0.084,�k�k��,3.2,�L
2022/11/15,12:10,0.160,0.144,0.227,0.219,0.219,0.128,0.083,�k��,3.1,�L
2022/11/15,12:20,0.158,0.145,0.229,0.219,0.216,0.128,0.083,�k�k��,4.1,�L
2022/11/15,12:30,0.159,0.144,0.229,0.219,0.218,0.128,0.084,�k�k��,4.2,�L
2022/11/15,12:40,0.159,0.146,0.228,0.220,0.219,0.129,0.084,�k�k��,4.9,�L
2022/11/15,12:50,0.159,0.147,0.229,0.220,0.218,0.129,0.083,�k��,4.9,�L
2022/11/15,13:00,0.160,0.146,0.230,0.219,0.219,0.128,0.083,�k�k��,3.7,�L
2022/11/15,13:10,0.161,0.146,0.229,0.219,0.219,0.130,0.084,�k�k��,3.4,�L
2022/11/15,13:20,0.159,0.146,0.229,0.221,0.218,0.129,0.084,�k��,3.9,�L
2022/11/15,13:30,0.160,0.146,0.230,0.219,0.219,0.128,0.084,�k��,3.5,�L
2022/11/15,13:40,0.161,0.146,0.229,0.220,0.219,0.130,0.083,�k��,4.0,�L
2022/11/15,13:50,-,0.146,0.230,0.221,0.219,0.129,0.085,�k��,3.5,�L
2022/11/15,14:00,-,0.146,0.229,0.220,0.218,0.129,0.083,�k��,3.1,�L
2022/11/15,14:10,-,0.146,0.228,0.219,0.218,0.129,0.084,�k��,3.2,�L
2022/11/15,14:20,-,0.146,0.230,0.219,0.219,0.128,0.083,-,CALM,�L
2022/11/15,14:30,-,0.146,0.229,0.218,0.217,0.129,0.083,�k,2.3,�L
2022/11/15,14:40,-,0.145,0.227,0.218,0.218,0.127,0.084,�k,2.7,�L
2022/11/15,14:50,-,0.145,0.229,0.219,0.217,0.128,0.083,�k�k��,2.8,�L
2022/11/15,15:00,-,0.144,0.228,0.218,0.217,0.128,0.082,�k�k��,2.5,�L
2022/11/15,15:10,0.159,0.145,0.227,0.219,0.219,0.127,0.082,�k��,1.9,�L
2022/11/15,15:20,0.157,0.145,0.228,0.218,0.216,0.128,0.083,-,CALM,�L
2022/11/15,15:30,0.158,0.144,0.227,0.217,0.218,0.127,0.082,�k�k��,0.8,�L
2022/11/15,15:40,0.157,0.143,0.226,0.218,0.216,0.127,0.082,-,CALM,�L
2022/11/15,15:50,0.158,0.143,0.226,0.216,0.215,0.127,0.083,-,CALM,�L
2022/11/15,16:00,0.158,0.143,0.227,0.218,0.217,0.126,0.081,-,CALM,�L
2022/11/15,16:10,0.156,0.144,0.224,0.216,0.216,0.126,0.081,-,CALM,�L
2022/11/15,16:20,0.157,0.143,0.226,0.216,0.217,0.126,0.082,-,CALM,�L
2022/11/15,16:30,0.157,0.143,0.226,0.216,0.217,0.126,0.081,-,CALM,�L
2022/11/15,16:40,0.157,0.143,0.226,0.216,0.216,0.126,0.081,-,CALM,�L
2022/11/15,16:50,0.157,0.142,0.225,0.216,0.215,0.126,0.080,-,CALM,�L
2022/11/15,17:00,0.156,0.142,0.226,0.215,0.214,0.125,0.080,��쐼,0.9,�L
2022/11/15,17:10,0.157,0.141,0.225,0.215,0.216,0.125,0.079,��,0.6,�L
2022/11/15,17:20,0.155,0.143,0.225,0.216,0.215,0.125,0.079,-,CALM,�L
2022/11/15,17:30,0.156,0.142,0.225,0.215,0.215,0.125,0.080,-,CALM,��
2022/11/15,17:40,0.156,0.141,0.223,0.214,0.216,0.125,0.080,��,0.9,��
2022/11/15,17:50,0.156,0.142,0.224,0.215,0.214,0.125,0.080,�쐼,1.3,��
2022/11/15,18:00,0.157,0.142,0.224,0.215,0.216,0.125,0.080,��,1.5,��
2022/11/15,18:10,0.157,0.142,0.224,0.216,0.214,0.125,0.080,��,1.4,��
2022/11/15,18:20,0.156,0.142,0.224,0.216,0.214,0.125,0.080,��쐼,1.2,��
2022/11/15,18:30,0.157,0.142,0.223,0.215,0.214,0.125,0.079,��쐼,2.1,��
2022/11/15,18:40,0.156,0.141,0.224,0.214,0.215,0.124,0.079,��쐼,1.9,��
2022/11/15,18:50,0.156,0.141,0.224,0.215,0.215,0.124,0.079,��쐼,1.9,��
2022/11/15,19:00,0.156,0.141,0.224,0.215,0.215,0.124,0.079,�쐼,2.1,��
2022/11/15,19:10,0.156,0.141,0.224,0.215,0.213,0.124,0.079,�쐼,2.1,��
2022/11/15,19:20,0.155,0.141,0.224,0.214,0.213,0.123,0.079,�쐼,1.8,��
2022/11/15,19:30,0.156,0.141,0.222,0.215,0.213,0.124,0.079,�쐼,1.9,��
2022/11/15,19:40,0.155,0.141,0.224,0.214,0.214,0.124,0.078,�쐼,1.7,��
2022/11/15,19:50,0.155,0.141,0.224,0.213,0.213,0.123,0.079,��쐼,1.7,��
2022/11/15,20:00,0.155,0.141,0.223,0.214,0.215,0.124,0.078,��쐼,2.1,��
2022/11/15,20:10,0.155,0.142,0.224,0.214,0.214,0.124,0.078,�쐼,2.7,��
2022/11/15,20:20,0.155,0.141,0.225,0.215,0.213,0.124,0.079,�쐼,2.1,��
2022/11/15,20:30,0.155,0.141,0.223,0.214,0.214,0.124,0.078,���쐼,2.8,��
2022/11/15,20:40,0.155,0.141,0.223,0.214,0.214,0.123,0.079,��,4.3,��
2022/11/15,20:50,0.155,0.141,0.223,0.214,0.214,0.124,0.079,���k��,3.5,��
2022/11/15,21:00,0.155,0.141,0.223,0.214,0.215,0.124,0.078,���k��,3.5,��
2022/11/15,21:10,0.155,0.141,0.223,0.214,0.214,0.124,0.078,�k��,3.1,��
2022/11/15,21:20,0.155,0.141,0.224,0.215,0.213,0.124,0.079,���k��,2.1,��
2022/11/15,21:30,0.156,0.141,0.224,0.215,0.214,0.125,0.078,���k��,2.5,��
2022/11/15,21:40,0.156,0.141,0.224,0.215,0.213,0.124,0.078,��,3.4,��
2022/11/15,21:50,0.155,0.141,0.224,0.215,0.213,0.124,0.078,��,4.4,��
2022/11/15,22:00,0.156,0.140,0.224,0.215,0.214,0.124,0.078,��,5.3,��
2022/11/15,22:10,0.155,0.140,0.224,0.213,0.214,0.124,0.078,���k��,4.9,��
2022/11/15,22:20,0.156,0.141,0.224,0.215,0.214,0.124,0.078,���k��,4.8,��
2022/11/15,22:30,0.155,0.141,0.223,0.214,0.214,0.123,0.078,���k��,4.0,��
2022/11/15,22:40,0.156,0.142,0.224,0.213,0.214,0.124,0.079,���k��,5.8,��
2022/11/15,22:50,0.155,0.141,0.224,0.214,0.213,0.124,0.078,���k��,5.9,��
2022/11/15,23:00,0.156,0.141,0.223,0.214,0.214,0.124,0.079,���k��,5.4,��
2022/11/15,23:10,0.155,0.142,0.224,0.215,0.213,0.123,0.079,���k��,4.2,��
2022/11/15,23:20,0.155,0.142,0.224,0.213,0.213,0.124,0.078,���k��,2.5,��
2022/11/15,23:30,0.155,0.141,0.224,0.215,0.214,0.123,0.080,�k��,1.0,��
2022/11/15,23:40,0.155,0.141,0.224,0.214,0.214,0.124,0.078,-,CALM,��
2022/11/15,23:50,0.156,0.140,0.222,0.215,0.213,0.124,0.079,���k��,0.7,��
